Location: Great Chart
(51.1333°N, 0.8333°E)
Time: 11:50:09
(UTC+00:00)

ADEOS Rocket - Pass Details

Date: 19 September 2020
Orbit: 858 x 1307 km, 98.7° (Epoch: 30 October)

Event Time Altitude Azimuth Distance (km) Brightness Sun altitude
Rises 03:07:56 0° 139° (SE) 4,009 6.3 -23.0°
Reaches altitude 10° 03:10:45 10° 133° (SE) 2,987 5.7 -22.6°
Maximum altitude 03:17:02 44° 65° (ENE) 1,403 4.3 -21.8°
Drops below altitude 10° 03:22:45 10° 355° (N) 2,716 5.6 -21.0°
Sets 03:25:12 0° 349° (N) 3,614 6.2 -20.7°
